Flag for India Weather past 2 weeks in Kãnpur, Uttar Pradesh, India

Now
95 °F

Scattered clouds.


Feels Like: 116 °F
Forecast: 83 / 95 °F
Wind: 7 mph from East

Location: Lucknow / Amausi

Current Time: Aug 4, 2015 at 1:55:53 PM

Latest Report: Aug 4, 2015 at 1:00 PM


Visibility: 3 mi

Pressure: 29.53 "Hg

Humidity: 63%

Dew point: 81 °F

Location of KãnpurLocation

Historic Weather in Kãnpur — Graph

°F

Kãnpur temperature yesterday

Maximum temperature yesterday: 97 °F (at 2:30 PM)
Minimum temperature yesterday: 81 °F (at 4:00 AM)
Average temperature yesterday: 89 °F

Past Weeks' High & Low Weather Summary

 TemperatureHumidityPressure
High97 °F (Jul 28, 5:30 PM)100% (Jul 24, 6:30 PM)29.71 "Hg (Jul 24, 6:30 PM)
Low79 °F (Jul 24, 3:30 PM)53% (Jul 28, 5:30 PM)29.42 "Hg (Jul 20, 4:00 PM)
Average87 °F77%29.57 "Hg
* Reported Jul 20 11:30 AM — Aug 4 12:00 Noon, Kãnpur, Weather by CustomWeather, © 2015

Note: Actual official high and low records may vary slightly from our data, if they occured in-between our weather recording intervals... More about our weather records

Advertising

Kãnpur weather history for previous 24 hours

 ConditionsComfort  
Time TempWeatherWind HumidityBarometerVisibility
12:00 PM
Tue, Aug 4
95 °FScattered clouds.8 mph60%29.56 "Hg3 mi
11:00 AM93 °FScattered clouds.8 mph67%29.56 "Hg3 mi
9:00 AM90 °FScattered clouds.8 mph75%29.59 "Hg3 mi
8:30 AM88 °FHaze.8 mph75%29.56 "Hg3 mi
8:00 AM86 °FHaze.9 mph84%29.56 "Hg3 mi
7:30 AM86 °FHaze.9 mph79%29.56 "Hg3 mi
7:00 AM84 °FHaze.7 mph84%29.56 "Hg3 mi
6:30 AM84 °FHaze.7 mph84%29.56 "Hg3 mi
6:00 AM82 °FPassing clouds.6 mph89%29.56 "Hg3 mi
5:30 AM82 °FPassing clouds.6 mph89%29.56 "Hg3 mi
5:00 AM82 °FPassing clouds.6 mph89%29.56 "Hg3 mi
4:00 AM84 °FPassing clouds.6 mph79%29.56 "Hg3 mi
3:00 AM84 °FPassing clouds.6 mph79%29.56 "Hg3 mi
2:00 AM84 °FPassing clouds.3 mph84%29.56 "Hg3 mi
1:00 AM86 °FPartly cloudy.3 mph79%29.59 "Hg3 mi
12:00 AM88 °FPartly cloudy.3 mph75%29.59 "Hg3 mi
11:00 PM
Mon, Aug 3
88 °FPartly cloudy.5 mph79%29.59 "Hg3 mi
10:00 PM88 °FPassing clouds.3 mph79%29.62 "Hg3 mi
9:00 PM90 °FPassing clouds.3 mph75%29.59 "Hg3 mi
8:30 PM90 °FPassing clouds.3 mph75%29.59 "Hg3 mi
7:30 PM91 °FPartly cloudy.6 mph71%29.56 "Hg3 mi
6:30 PM93 °FBroken clouds.6 mph67%29.53 "Hg4 mi
5:30 PM95 °FScattered clouds.8 mph63%29.53 "Hg4 mi
5:00 PM95 °FScattered clouds.5 mph63%29.50 "Hg4 mi
4:00 PM95 °FBroken clouds.5 mph63%29.53 "Hg4 mi
2:30 PM97 °FBroken clouds.6 mph56%29.56 "Hg4 mi
Weather by CustomWeather, © 2015

See weather overviewHow to use our weather pages